Vorticity
2 9 -3 4 -2 4 5 6 6 7 7 10 10 4 7 6 8 5 5 6 6 6 4 4 3 6 8 9 7 7 2 1 1 3 1 3 6 4 4 8 10 8 6 8
6 5 10 12 4 3 0 3 5 4 3 9 7 6 6 6 4 2 3 4 5 5 4 4 3 -0 4 10 5 4 2 -0 -2 2 3 -0 4 1 9 10 12 12 9 13
7 6 13 8 -2 7 5 3 3 4 4 8 7 11 6 2 5 2 3 2 1 4 6 3 3 4 5 12 6 6 5 0 -1 -3 2 2 1 -0 3 4 4 14 18 12
11 8 4 9 4 2 8 8 5 5 3 3 7 19 8 9 9 7 6 5 6 7 8 5 7 13 9 14 10 4 7 4 0 2 2 0 3 -1 -2 2 1 6 6 13
12 5 6 7 7 11 -2 5 7 8 10 4 1 11 4 8 7 10 11 7 4 -1 21 22 12 7 9 10 12 4 5 5 4 3 2 2 3 3 2 1 2 1 5 8
13 9 8 8 7 9 15 4 7 4 9 10 -1 3 4 1 3 6 6 6 6 7 23 19 14 4 8 10 7 9 0 11 4 4 3 3 3 4 4 3 2 2 -0 7
8 9 5 9 7 5 10 10 5 5 5 0 6 5 12 -2 1 0 4 7 8 15 4 10 6 3 7 10 11 6 2 5 5 4 5 2 5 4 4 5 3 3 2 0
28 11 5 1 11 0 12 5 10 -1 1 11 7 4 5 2 10 2 1 7 9 3 5 5 5 6 12 12 4 11 8 3 5 6 3 6 7 5 4 5 4 5 4 3
28 24 6 10 6 11 9 7 3 18 10 5 3 2 6 6 1 7 6 11 8 8 8 8 11 14 11 14 6 8 12 8 4 5 3 6 7 5 5 4 4 5 5 4
21 40 7 10 15 23 -4 15 15 2 9 15 14 4 13 7 5 -3 8 3 3 -1 5 5 8 6 9 10 5 3 0 3 6 4 5 5 7 4 3 4 3 4 5 6
12 9 24 22 8 1 8 2 7 8 15 6 13 12 -6 13 14 2 1 11 8 3 6 6 7 5 17 17 11 11 15 9 -0 3 8 4 6 7 3 4 4 5 4 5
16 9 14 23 27 13 13 16 12 5 7 10 14 15 8 1 -7 11 -3 -5 -20 -0 8 7 14 12 14 8 6 9 -1 6 6 9 15 8 1 3 3 4 4 3 4 6
10 7 11 -2 22 13 9 14 10 1 14 19 10 23 10 11 17 7 9 3 9 4 -4 -1 22 13 9 6 8 -0 11 1 3 4 -0 3 4 6 8 8 8 8 7 7
36 15 13 15 13 19 24 13 1 2 5 10 -2 28 5 1 6 4 7 9 0 9 13 26 16 15 2 7 0 6 4 2 7 12 -1 4 9 6 7 6 7 7 9 6
0 43 17 -1 7 6 13 15 12 7 17 12 8 8 14 6 7 2 8 0 5 6 12 12 14 -2 11 10 9 5 2 4 5 -3 6 2 2 6 6 6 8 7 6 8
6 5 7 -26 86 33 -5 8 9 20 1 10 25 15 5 22 14 10 10 17 14 9 15 16 -1 2 -5 -3 -1 1 4 2 5 -0 1 3 8 10 8 9 7 11 9 -7
6 1 -2 25 -21 13 -14 80 24 10 12 0 7 8 25 1 4 13 15 9 5 -1 15 13 16 9 -3 -10 9 13 9 4 4 -7 11 14 6 8 10 10 4 -5 -2 4
4 17 -14 -0 7 13 29 -6 13 27 31 33 2 12 6 24 16 9 7 4 18 17 -3 -5 -11 -2 7 6 9 6 2 -0 -6 5 13 7 7 -6 7 10 7 -3 12 7
4 8 10 -0 -12 3 27 10 4 -8 -2 19 51 2 6 4 6 -1 10 14 19 7 11 18 4 7 11 9 2 1 -4 3 2 12 -4 -0 -3 1 16 -6 -3 24 4 7
1 1 6 5 3 5 10 -4 7 -10 58 -16 -8 56 4 8 13 1 4 4 5 13 18 11 12 10 9 7 8 5 4 5 -9 2 19 13 3 9 5 12 5 5 6 10
12 11 3 5 13 18 10 -4 2 1 84 -34 -7 7 37 9 17 27 7 2 3 2 1 11 8 8 13 8 4 13 14 4 5 3 2 3 7 8 10 1 6 8 11 13
22 18 16 11 7 23 35 -28 -3 5 34 -11 6 16 5 31 9 15 16 14 14 5 4 0 3 3 7 11 7 2 3 4 7 5 -1 2 2 -0 7 17 4 5 10 7
7 4 6 -2 24 42 55 27 -9 4 15 31 -13 3 19 -7 -1 29 8 16 14 13 16 6 6 8 13 -3 -2 14 11 13 12 2 2 13 17 15 11 2 3 3 6 8
35 -29 38 6 22 15 8 60 42 -6 12 38 4 21 10 22 10 16 27 4 1 10 13 6 16 21 26 16 19 2 7 10 14 12 14 12 13 10 2 5 4 1 2 5
-7 11 7 5 8 18 15 16 38 27 20 18 38 21 27 25 14 -47 19 30 23 22 16 18 8 1 -3 5 14 15 11 4 5 10 7 9 3 3 -2 0 10 9 7 10
9 1 9 15 12 11 13 20 14 9 9 9 6 9 35 41 59 -2 8 -9 18 7 1 3 7 12 21 20 14 11 14 12 11 4 23 12 8 2 9 -1 4 11 9 10
Height
5747 5746 5756 5780 5786 5790 5795 5799 5804 5812 5818 5816 5821 5819 5830 5834 5837 5838 5844 5848 5851 5852 5856 5854 5856 5857 5866 5870 5870 5870 5870 5869 5870 5870 5869 5867 5866 5864 5862 5859 5858 5856 5855 5855
5726 5732 5759 5769 5770 5774 5781 5787 5794 5800 5805 5806 5811 5811 5815 5825 5830 5830 5835 5841 5844 5846 5848 5850 5852 5852 5855 5860 5863 5864 5865 5864 5864 5865 5866 5864 5863 5862 5861 5859 5856 5852 5849 5847
5714 5745 5751 5752 5754 5758 5767 5775 5787 5789 5793 5795 5796 5798 5805 5816 5822 5824 5826 5832 5837 5839 5841 5843 5844 5844 5847 5851 5855 5856 5858 5859 5859 5860 5860 5859 5859 5858 5857 5856 5853 5850 5846 5842
5698 5725 5727 5731 5736 5751 5755 5772 5776 5774 5777 5781 5779 5783 5793 5806 5812 5816 5819 5822 5828 5830 5835 5836 5837 5838 5838 5844 5846 5849 5851 5852 5852 5854 5854 5853 5853 5853 5852 5851 5848 5846 5843 5839
5684 5707 5715 5716 5729 5739 5749 5759 5759 5758 5762 5762 5768 5769 5787 5793 5798 5810 5814 5814 5818 5821 5827 5829 5831 5829 5830 5835 5839 5841 5843 5844 5845 5846 5847 5847 5847 5845 5844 5842 5841 5840 5838 5835
5677 5687 5693 5706 5719 5724 5737 5741 5738 5736 5743 5737 5761 5761 5771 5781 5792 5799 5804 5807 5810 5817 5816 5819 5820 5821 5823 5828 5829 5833 5835 5835 5838 5838 5839 5839 5839 5838 5836 5834 5833 5832 5831 5829
5661 5666 5683 5693 5698 5705 5710 5720 5717 5717 5718 5727 5758 5745 5756 5771 5781 5787 5794 5799 5801 5809 5807 5810 5812 5813 5815 5819 5822 5823 5825 5826 5829 5830 5831 5831 5831 5829 5827 5826 5825 5824 5822 5821
5640 5644 5657 5673 5680 5693 5700 5706 5705 5707 5710 5721 5731 5716 5746 5758 5770 5778 5782 5788 5793 5795 5799 5799 5802 5805 5807 5811 5812 5813 5814 5816 5818 5820 5821 5822 5821 5820 5819 5818 5817 5816 5814 5812
5623 5628 5649 5660 5674 5676 5684 5676 5704 5699 5702 5700 5707 5719 5738 5749 5753 5767 5773 5780 5783 5784 5788 5790 5791 5796 5799 5802 5802 5804 5805 5807 5809 5810 5811 5811 5811 5811 5810 5810 5809 5807 5806 5805
5616 5619 5629 5646 5653 5655 5661 5685 5678 5673 5676 5679 5692 5706 5715 5739 5745 5754 5765 5770 5770 5773 5778 5781 5783 5785 5790 5792 5793 5794 5796 5797 5799 5800 5801 5801 5801 5801 5801 5800 5800 5799 5797 5795
5606 5607 5617 5624 5627 5642 5650 5651 5657 5662 5665 5669 5681 5684 5712 5728 5736 5741 5750 5758 5760 5760 5766 5771 5773 5776 5777 5779 5781 5784 5786 5788 5789 5789 5790 5790 5790 5791 5791 5791 5790 5789 5788 5786
5596 5597 5602 5610 5627 5633 5635 5638 5648 5646 5652 5653 5661 5668 5696 5710 5721 5731 5736 5740 5744 5748 5752 5757 5762 5765 5766 5768 5771 5775 5776 5778 5778 5779 5780 5780 5781 5781 5781 5781 5781 5779 5778 5776
5584 5584 5592 5597 5605 5611 5612 5624 5629 5631 5639 5637 5644 5658 5691 5698 5707 5716 5723 5728 5734 5737 5741 5746 5750 5754 5757 5759 5760 5764 5766 5767 5767 5769 5771 5771 5772 5772 5772 5772 5771 5769 5767 5765
5568 5571 5575 5581 5597 5604 5606 5614 5619 5623 5620 5627 5628 5648 5671 5679 5689 5699 5706 5714 5720 5722 5727 5732 5738 5741 5744 5746 5749 5751 5753 5754 5756 5758 5761 5762 5762 5762 5762 5761 5759 5758 5756 5754
5555 5561 5566 5574 5578 5584 5590 5598 5602 5602 5606 5606 5619 5628 5656 5666 5673 5683 5691 5698 5702 5709 5716 5719 5723 5727 5730 5733 5736 5738 5741 5742 5744 5746 5749 5748 5748 5749 5748 5747 5746 5745 5743 5741
5546 5549 5553 5559 5566 5569 5572 5580 5582 5588 5593 5595 5605 5614 5644 5654 5656 5664 5674 5682 5686 5694 5699 5704 5708 5712 5716 5720 5724 5726 5729 5730 5731 5733 5734 5735 5735 5735 5735 5734 5733 5731 5729 5727
5534 5536 5539 5541 5544 5546 5547 5556 5567 5574 5577 5581 5588 5606 5631 5636 5640 5645 5652 5661 5675 5680 5685 5689 5694 5697 5702 5707 5710 5713 5715 5716 5718 5719 5721 5722 5722 5723 5720 5720 5719 5718 5717 5715
5526 5529 5529 5529 5529 5523 5532 5543 5548 5554 5566 5574 5580 5594 5609 5621 5625 5626 5638 5649 5654 5662 5669 5675 5679 5684 5687 5691 5693 5696 5698 5698 5702 5704 5707 5709 5708 5707 5707 5703 5703 5702 5700 5698
5517 5521 5517 5514 5516 5519 5524 5536 5545 5547 5557 5559 5562 5573 5588 5605 5603 5615 5626 5626 5637 5646 5654 5659 5664 5668 5671 5674 5677 5678 5680 5682 5684 5687 5688 5691 5691 5690 5689 5689 5688 5685 5684 5682
5510 5506 5505 5509 5504 5500 5525 5529 5534 5534 5528 5546 5551 5560 5573 5584 5582 5601 5603 5604 5614 5624 5633 5639 5645 5647 5651 5656 5660 5661 5663 5666 5670 5673 5672 5670 5671 5673 5673 5672 5671 5669 5668 5666
5496 5496 5492 5493 5490 5490 5514 5520 5522 5506 5523 5548 5542 5543 5550 5553 5559 5577 5575 5584 5594 5602 5613 5622 5625 5630 5637 5639 5642 5646 5650 5652 5655 5654 5654 5654 5653 5653 5654 5655 5653 5651 5651 5649
5482 5483 5484 5484 5479 5475 5509 5511 5494 5508 5519 5522 5522 5527 5529 5537 5547 5553 5556 5566 5575 5582 5590 5600 5607 5615 5618 5622 5627 5631 5632 5636 5636 5637 5638 5638 5637 5636 5637 5637 5636 5635 5634 5633
5469 5474 5477 5473 5470 5476 5488 5485 5494 5495 5493 5504 5506 5511 5514 5521 5532 5539 5545 5553 5560 5566 5575 5578 5585 5595 5602 5604 5607 5612 5616 5616 5619 5622 5622 5622 5621 5620 5620 5620 5619 5617 5616 5615
5456 5462 5456 5460 5464 5469 5474 5475 5480 5485 5485 5488 5490 5489 5494 5501 5518 5525 5528 5535 5541 5550 5556 5562 5566 5573 5580 5585 5588 5592 5597 5600 5602 5604 5606 5606 5605 5604 5603 5602 5601 5601 5600 5600
5451 5448 5451 5448 5453 5457 5458 5462 5466 5467 5467 5468 5473 5476 5480 5486 5498 5513 5516 5520 5528 5533 5541 5545 5552 5557 5562 5567 5571 5575 5578 5582 5585 5586 5588 5588 5588 5588 5587 5586 5585 5583 5583 5582
5437 5439 5436 5437 5446 5436 5444 5450 5450 5444 5448 5454 5458 5462 5465 5468 5475 5494 5503 5506 5514 5520 5525 5529 5536 5541 5547 5552 5555 5558 5562 5567 5570 5572 5573 5574 5573 5573 5572 5571 5570 5569 5568 5567